Weather in Stuble

Russia / Ryazan Oblast     54°18′51″N   39°02′11″E
temp.,
°C
wind,
m/s
gust,
m/s
humid.,
%
clouds,
%
prec.,
mm/h
press.,
hPa
HPBL,
m
1 march, mon
mon100:00−4nne229296 0.0 102164
03:00−5n239498 0.0 102363
06:00−9nnw129893 0.0 102421
09:00−8w119665 0.1 102521
12:00−3wsw369353 0.0 1026317
15:00−2wsw579573 0.1 1024510
18:00−1w61089100 0.0 1022600
21:00−2wsw6139299 0.0 1020406
2 march, tue
tue200:000w71392100 0.0 1017711
03:00+1w71493100 0.0 1015662
06:00+1w71494100 0.0 1011704
09:00+1w61496100 0.0 1011606
12:00+1wnw61298100 0.1 1009655
15:00+1wnw51195100 0.3 1009660
18:000wnw5119299 0.2 1009507
21:00−2nw5119091 0.3 1011349
3 march, wed
wed300:00−2nw5139098 0.1 1011559
03:00−4nw6139199 0.1 1013536
06:00−5nw6149096 0.1 1014598
09:00−6nw7148780 0.1 1016723
12:00−3nw612830 0.0 1016819
15:00−1wnw611840 0.0 1016929
18:00−2wnw6128799 0.1 1015527
21:00−2w5128997 0.1 1016582
4 march, thu
thu400:00−2w51091100 0.1 1014545
03:00−2w51289100 0.1 1013609
06:00−2wsw71689100 0.0 1010462
09:00−1wsw91787100 0.0 1007546
12:00+1wsw101878100 0.0 1003825
15:00+1wsw91782100 0.0 1002852
18:00+1wsw71489100 0.0 1000772
21:00+1w51198100 0.1 1001572
5 march, fri
fri500:000nw4798100 0.5 1001415
03:00−3nnw3588100 0.7 1003114
06:00−4nnw2391100 0.0 1005122
09:00−5n1291100 0.0 1006140
12:00−3ne1184100 0.0 1007323
15:00−3ene2286100 0.0 1007400
18:00−4ene2393100 0.1 1007111
21:00−5ne2295100 0.1 100779